Eau Claire, WI

9:30 PM CDT on June 28, 2017 (GMT -0500)
Chippewa Valley Regional

Weather History for KEAU - December, 2011

Change the Weather History Date:

Wednesday, December 7, 2011

  Actual Average Record
Temperature  
Mean Temperature 18 °F 22 °F  
Max Temperature 23 °F 30 °F 49 °F (1916)
Min Temperature 13 °F 14 °F -24 °F (1972)
Degree Days  
Heating Degree Days 47 43  
Month to date heating degree days 292 295  
Since 1 July heating degree days 1800 2041  
Cooling Degree Days 0 0  
Month to date cooling degree days 0 0  
Year to date cooling degree days 655 579  
Moisture  
Dew Point 12 °F    
Average Humidity 80    
Maximum Humidity 88    
Minimum Humidity 71    
Precipitation  
Precipitation 0.00 in 0.04 in 0.65 in (1926)
Month to date precipitation 0.46 0.29  
Year to date precipitation 31.16 30.27  
Snow  
Snow 0.00 in 0.30 in 7.00 in (1969)
Month to date snowfall 5.8 2.1  
Since 1 July snowfall 7.0 8.4  
Snow Depth 4.00 in    
Sea Level Pressure  
Sea Level Pressure 30.03 in    
Wind  
Wind Speed 7 mph (SW)    
Max Wind Speed 16 mph    
Max Gust Speed 23 mph    
Visibility 10 miles    
Events      
T = Trace of Precipitation, MM = Missing Value Source: NWS Daily Summary

Daily Weather History Graph

Daily Weather History Graph

Search for Another Location

Airport or City:

Trip Planner

Search our weather history database for the weather conditions in past years. The results will help you decide how hot, cold, wet, or windy it might be!

Date:

Astronomy

Dec. 07, 2011 Rise Set
Actual Time 7:29 AM CST 4:24 PM CST
Civil Twilight 6:56 AM CST 4:58 PM CST
Nautical Twilight 6:19 AM CST 5:35 PM CST
Astronomical Twilight 5:43 AM CST 6:10 PM CST
Moon 2:28 PM CST (12/7) 4:42 AM CST (12/7)
Length of Visible Light 10h 01m
Length of Day
8h 55m
Waxing Gibbous, 92% of the Moon is Illuminated
Dec 7
Waxing Gibbous
Dec 10
Full
Dec 17
Last Quarter
Dec 24
New
Jan 1
First Quarter

Hourly Weather History & Observations

Time (CST) Temp. Windchill Dew Point Humidity Pressure Visibility Wind Dir Wind Speed Gust Speed Precip Events Conditions
12:56 AM 14.0 °F 1.2 °F 9.0 °F 80% 30.06 in 10.0 mi SSW 10.4 mph - N/A   Overcast
1:56 AM 14.0 °F -0.2 °F 9.0 °F 80% 30.03 in 10.0 mi SSW 12.7 mph - N/A   Overcast
2:56 AM 15.1 °F 3.3 °F 9.0 °F 77% 29.99 in 10.0 mi SSW 9.2 mph - N/A   Overcast
3:56 AM 16.0 °F 7.4 °F 9.0 °F 74% 29.98 in 10.0 mi SSW 5.8 mph - N/A   Overcast
4:56 AM 16.0 °F 7.4 °F 9.0 °F 74% 29.99 in 10.0 mi SW 5.8 mph - N/A   Overcast
5:56 AM 16.0 °F 6.3 °F 8.1 °F 71% 29.99 in 10.0 mi WSW 6.9 mph - N/A   Overcast
6:56 AM 15.1 °F 4.2 °F 9.0 °F 77% 29.99 in 10.0 mi SW 8.1 mph - N/A   Overcast
7:56 AM 15.1 °F 5.2 °F 9.0 °F 77% 30.01 in 10.0 mi WSW 6.9 mph - N/A   Overcast
8:56 AM 16.0 °F 7.4 °F 10.0 °F 77% 30.02 in 10.0 mi SW 5.8 mph - N/A   Overcast
9:43 AM 17.6 °F 7.3 °F 10.4 °F 73% 29.98 in 10.0 mi West 8.1 mph - N/A   Overcast
9:56 AM 17.1 °F 7.6 °F 10.0 °F 74% 30.04 in 10.0 mi WSW 6.9 mph - N/A   Overcast
10:56 AM 18.0 °F 9.8 °F 10.9 °F 74% 30.04 in 10.0 mi West 5.8 mph - N/A   Overcast
12:56 PM 21.0 °F 13.4 °F 14.0 °F 74% 30.03 in 10.0 mi SW 5.8 mph - N/A   Scattered Clouds
1:56 PM 21.9 °F 13.4 °F 15.1 °F 75% 30.04 in 10.0 mi WSW 6.9 mph - N/A   Clear
2:56 PM 23.0 °F 15.8 °F 15.1 °F 72% 30.03 in 10.0 mi WSW 5.8 mph - N/A   Clear
3:56 PM 21.9 °F 13.4 °F 15.1 °F 75% 30.06 in 10.0 mi WSW 6.9 mph - N/A   Clear
4:56 PM 19.9 °F 12.1 °F 14.0 °F 78% 30.08 in 10.0 mi SW 5.8 mph - N/A   Clear
5:56 PM 17.1 °F 7.6 °F 12.9 °F 84% 30.09 in 10.0 mi SSW 6.9 mph - N/A   Clear
6:56 PM 15.8 °F 6.1 °F 12.2 °F 86% 30.04 in 10.0 mi SW 6.9 mph - N/A   Clear
7:56 PM 15.8 °F 8.6 °F 12.2 °F 86% 30.03 in 9.0 mi SSW 4.6 mph - N/A   Clear
8:56 PM 17.1 °F 7.6 °F 12.9 °F 84% 30.07 in 10.0 mi WSW 6.9 mph - N/A   Clear
9:56 PM 16.0 °F 5.3 °F 12.0 °F 84% 30.07 in 9.0 mi SW 8.1 mph - N/A   Clear
10:56 PM 18.0 °F 7.7 °F 14.0 °F 84% 30.06 in 10.0 mi SW 8.1 mph - N/A   Mostly Cloudy
11:56 PM 19.9 °F 10.1 °F 15.1 °F 81% 30.06 in 10.0 mi SW 8.1 mph - N/A   Overcast